Temp
61 61 61 62 62 62 62 63 63 63 63 63 62 62 62 62 64 63 53 59 62 66 65 67 68 69 70 67 70 69 55 53 53 55 55 61 58 64 66 62 64 64 62 64 67
60 60 61 61 61 61 62 62 62 62 62 62 62 62 61 62 64 58 63 65 65 66 65 66 66 69 63 63 63 60 54 52 57 55 52 57 56 56 54 56 56 57 62 64 64
59 59 60 60 61 61 61 61 61 62 62 62 62 61 61 62 60 57 65 65 67 69 67 67 69 68 59 61 58 57 51 57 55 54 56 54 54 57 53 51 52 51 55 59 59
58 58 59 59 60 60 60 61 61 61 62 62 62 61 61 62 48 60 65 66 67 71 69 67 64 58 53 52 58 51 55 57 55 54 54 50 55 54 53 51 58 57 58 58 57
58 58 58 58 59 60 60 60 61 61 61 61 62 61 60 56 51 66 65 66 68 66 62 63 59 57 50 53 54 51 52 55 54 54 51 55 52 50 50 54 58 60 60 56 57
57 57 57 58 58 59 59 59 60 60 61 61 62 61 61 48 62 66 64 63 64 63 59 59 55 59 53 50 49 52 53 52 53 53 53 48 49 52 52 56 56 58 56 56 57
57 57 57 57 58 58 58 59 59 60 60 61 62 66 56 50 65 65 64 61 62 61 56 58 61 55 56 47 52 51 47 49 50 51 49 50 47 49 51 54 55 55 53 55 57
56 56 57 57 57 58 58 58 59 59 60 61 62 63 49 61 62 61 63 62 63 63 59 60 60 55 52 52 52 47 44 40 47 49 49 47 41 52 52 48 50 53 49 53 56
56 56 56 57 57 57 57 58 58 60 61 63 60 58 48 63 57 60 61 55 59 61 60 66 59 54 50 46 42 45 37 40 44 48 45 44 39 53 54 49 48 50 51 53 55
56 56 56 57 57 57 57 58 60 61 63 66 63 52 54 50 56 57 61 59 55 56 56 55 53 46 44 43 34 31 33 39 39 44 43 40 40 49 53 52 47 48 49 50 53
56 56 56 56 57 58 57 58 55 53 52 44 47 50 52 56 59 56 58 57 58 54 43 49 41 34 38 40 41 39 36 37 43 47 37 39 42 46 51 50 47 45 48 49 52
56 56 56 56 57 58 58 50 45 47 44 52 52 53 54 54 50 53 58 52 51 42 47 43 34 41 44 43 41 37 36 37 41 45 40 38 39 45 49 49 48 47 48 49 51
55 55 55 56 57 55 50 46 53 53 45 47 50 50 49 52 47 46 51 50 45 42 42 38 39 45 42 40 38 39 35 33 32 38 41 37 35 39 46 51 49 51 51 51 50
55 55 55 56 54 53 47 53 53 52 34 40 46 48 52 51 44 53 52 47 44 39 39 38 42 41 37 39 38 31 40 37 35 30 26 35 26 39 44 44 47 50 49 46 49
54 54 55 56 53 49 49 54 53 47 28 41 46 54 51 46 45 46 51 49 39 40 37 33 37 35 36 37 39 36 39 35 33 29 29 30 24 37 44 41 45 48 47 48 49
53 53 55 55 52 50 52 52 47 35 28 32 43 41 43 45 45 48 47 49 45 39 39 35 40 38 38 40 40 41 35 36 32 28 17 30 28 31 37 42 43 46 47 48 49
53 53 54 54 47 52 51 46 34 29 35 31 32 37 37 36 40 41 40 36 33 29 29 32 33 38 40 34 38 36 29 23 20 17 23 32 26 33 43 45 45 44 44 48 49
52 54 51 51 52 50 47 38 29 31 30 37 36 35 34 33 36 37 35 32 33 32 29 27 26 33 38 33 28 30 26 21 16 20 25 29 24 34 46 46 48 48 48 49 48
52 53 51 49 51 48 41 30 33 33 38 37 36 32 29 32 32 34 32 32 33 32 29 26 27 34 36 38 35 28 23 29 20 20 17 26 34 43 44 44 44 45 44 45 46
51 50 48 50 49 45 33 36 32 41 43 41 34 35 28 26 28 29 30 33 31 32 29 28 24 30 32 35 34 29 34 22 21 11 10 27 30 33 36 42 45 41 42 44 46
49 40 44 50 46 35 29 32 31 38 43 39 36 29 32 27 29 28 30 31 37 30 31 26 26 25 28 24 27 26 24 23 21 22 17 17 25 40 38 40 39 40 43 45 45
46 33 45 47 33 31 30 31 38 36 36 35 36 37 34 32 27 28 29 31 41 35 28 29 25 22 24 30 32 28 29 28 18 17 21 23 23 44 40 40 41 41 45 46 45
38 36 45 42 30 29 30 29 34 33 34 31 32 38 39 32 26 30 31 38 41 34 28 28 22 17 22 23 25 19 28 31 28 26 17 15 22 44 40 39 41 43 43 44 45
36 30 34 36 34 33 29 29 29 36 33 36 32 34 33 32 34 26 31 33 36 35 39 37 25 22 22 22 22 16 20 26 21 16 21 26 31 40 44 44 44 45 44 43 43
37 32 34 26 28 31 33 33 31 28 29 35 32 32 29 23 32 29 32 29 32 37 33 27 14 20 22 25 23 21 20 23 22 28 21 32 30 38 42 43 44 45 43 43 43
33 32 31 33 33 32 34 31 33 33 29 27 28 34 32 28 32 30 33 30 28 31 30 27 15 16 12 26 25 20 25 26 27 28 29 31 30 41 43 44 43 42 42 41 41
39 36 36 34 31 31 32 34 36 36 35 38 35 35 32 35 38 35 35 37 35 29 28 22 18 11 11 24 22 15 22 26 26 28 29 23 32 40 39 41 40 41 41 40 41
MSLP
1022.41 1021.99 1021.70 1021.52 1021.13 1020.90 1020.73 1020.26 1020.12 1020.07 1019.71 1019.34 1019.15 1019.05 1018.76 1018.49 1018.07 1017.51 1018.04 1019.87 1019.00 1017.60 1016.55 1015.66 1015.24 1014.89 1014.50 1014.17 1013.82 1013.55 1013.77 1014.04 1014.94 1015.20 1015.84 1016.39 1016.49 1016.16 1016.16 1016.15 1016.10 1016.59 1016.98 1017.11 1016.80
1022.81 1022.53 1022.24 1021.91 1021.53 1021.25 1020.99 1020.35 1020.24 1020.14 1019.84 1019.51 1019.15 1018.97 1018.83 1018.64 1018.13 1018.19 1019.85 1019.17 1018.26 1017.14 1016.19 1015.30 1014.85 1014.59 1014.56 1014.54 1014.55 1014.30 1014.56 1015.94 1016.90 1017.43 1017.68 1017.60 1017.66 1017.50 1017.19 1016.93 1016.98 1017.30 1017.11 1017.09 1016.91
1023.22 1022.89 1022.53 1022.29 1021.77 1021.52 1021.30 1020.77 1020.59 1020.12 1019.79 1019.42 1018.95 1018.65 1018.76 1018.66 1018.35 1019.48 1019.74 1019.15 1017.89 1016.85 1016.58 1016.08 1015.36 1014.94 1015.28 1015.47 1015.89 1015.81 1016.39 1017.16 1018.04 1018.71 1018.69 1018.59 1018.46 1018.23 1017.84 1017.72 1018.16 1018.35 1018.20 1017.99 1017.75
1023.58 1023.27 1022.75 1022.44 1022.16 1021.74 1021.20 1020.68 1020.55 1020.11 1019.73 1019.33 1018.95 1018.67 1018.80 1018.63 1020.06 1020.32 1020.13 1019.29 1017.87 1016.59 1016.16 1015.86 1015.63 1015.60 1016.31 1016.57 1016.87 1017.40 1018.23 1018.27 1018.95 1019.27 1019.27 1019.45 1019.08 1018.53 1018.49 1018.52 1018.53 1018.50 1018.47 1018.28 1018.11
1023.91 1023.60 1023.03 1022.56 1022.21 1021.66 1021.46 1020.99 1020.58 1020.24 1019.60 1019.24 1018.73 1018.57 1018.95 1019.26 1020.99 1020.56 1020.24 1019.49 1018.19 1017.53 1017.02 1016.52 1016.37 1016.53 1017.33 1017.71 1018.11 1018.27 1018.86 1019.21 1019.53 1019.61 1019.76 1019.88 1019.41 1019.05 1018.66 1018.60 1018.47 1018.36 1018.31 1018.40 1018.17
1023.91 1023.77 1023.29 1022.93 1022.34 1022.00 1021.46 1020.97 1020.64 1020.15 1019.85 1019.39 1018.67 1018.38 1018.91 1020.16 1021.40 1020.80 1020.33 1019.77 1019.05 1018.24 1018.14 1017.72 1017.90 1017.50 1018.27 1019.00 1019.03 1019.49 1019.44 1019.63 1019.65 1019.93 1019.83 1020.07 1019.62 1019.24 1018.55 1018.48 1018.48 1018.34 1018.39 1018.50 1018.20
1024.29 1023.80 1023.70 1022.90 1022.53 1022.22 1021.47 1021.20 1020.90 1020.38 1019.95 1019.29 1018.88 1018.60 1019.51 1021.62 1021.14 1021.06 1020.34 1020.01 1019.57 1019.17 1018.91 1018.77 1018.12 1018.19 1018.56 1019.63 1020.03 1019.86 1019.70 1019.67 1019.81 1020.07 1020.18 1020.06 1019.16 1018.64 1018.29 1018.28 1018.43 1018.32 1018.27 1018.33 1018.14
1024.30 1023.88 1023.62 1023.11 1022.73 1022.00 1021.78 1021.05 1020.61 1020.29 1019.75 1019.32 1019.06 1018.88 1020.69 1021.56 1021.31 1021.00 1020.63 1019.85 1019.70 1019.38 1019.37 1019.09 1018.57 1018.81 1019.38 1019.96 1020.02 1019.76 1019.84 1019.96 1020.20 1020.53 1020.54 1020.59 1019.18 1018.21 1018.12 1018.27 1018.42 1018.22 1018.07 1018.01 1017.94
1024.56 1024.31 1023.35 1023.09 1022.52 1022.04 1021.15 1020.87 1020.60 1020.03 1019.71 1019.28 1019.34 1019.03 1021.12 1021.24 1021.39 1021.34 1020.92 1020.67 1019.86 1019.19 1019.12 1018.77 1018.60 1018.84 1020.15 1020.06 1020.30 1020.09 1020.53 1020.81 1020.76 1020.93 1021.20 1021.12 1019.55 1018.10 1017.77 1018.04 1018.38 1018.12 1018.01 1017.77 1017.58
1024.41 1023.94 1023.46 1023.31 1022.37 1021.54 1020.76 1020.80 1020.44 1019.77 1019.51 1019.36 1019.60 1020.31 1021.38 1022.12 1022.01 1021.73 1021.20 1020.67 1020.10 1019.48 1019.34 1019.22 1018.99 1020.16 1021.17 1020.93 1021.73 1021.69 1021.61 1021.60 1021.46 1021.27 1021.24 1021.11 1019.67 1018.67 1017.95 1017.73 1018.21 1018.00 1017.99 1017.73 1017.52
1024.63 1024.15 1023.89 1023.48 1022.52 1021.76 1020.93 1020.58 1021.68 1021.09 1021.23 1022.24 1022.72 1022.23 1022.52 1022.57 1021.98 1021.85 1021.36 1020.63 1019.94 1020.17 1020.73 1020.44 1021.20 1022.77 1023.56 1023.51 1023.12 1022.85 1022.99 1022.53 1021.78 1021.98 1021.97 1020.83 1019.64 1018.26 1017.62 1017.39 1017.62 1017.67 1017.64 1017.56 1017.45
1025.19 1024.64 1023.94 1023.32 1022.75 1021.81 1021.12 1022.63 1024.56 1024.77 1023.82 1023.19 1023.04 1022.95 1023.01 1022.96 1022.31 1022.27 1021.77 1021.32 1020.95 1021.34 1021.15 1021.92 1023.13 1024.28 1024.52 1024.23 1023.82 1023.82 1023.83 1023.38 1022.68 1022.71 1022.97 1021.22 1019.26 1017.77 1017.08 1016.80 1016.90 1017.19 1017.34 1017.30 1017.19
1025.44 1024.90 1024.24 1023.54 1022.85 1022.68 1023.52 1024.77 1024.95 1024.65 1023.95 1023.57 1023.54 1023.37 1023.64 1023.41 1023.29 1023.49 1023.08 1022.43 1022.25 1022.39 1022.55 1022.99 1024.65 1024.81 1024.84 1024.47 1024.48 1024.05 1024.54 1024.96 1025.27 1023.89 1022.49 1021.72 1019.16 1016.99 1016.19 1016.22 1016.46 1016.76 1016.92 1016.84 1016.89
1025.39 1024.84 1024.04 1023.16 1023.21 1023.49 1024.35 1024.93 1024.73 1024.27 1024.16 1024.35 1023.80 1024.11 1023.86 1023.57 1023.80 1024.09 1023.90 1023.59 1023.04 1023.57 1023.80 1024.51 1025.31 1025.16 1025.00 1025.03 1025.29 1025.19 1025.36 1025.72 1025.72 1025.34 1023.72 1022.47 1020.03 1017.01 1016.09 1016.11 1016.37 1016.34 1016.32 1016.51 1016.61
1025.67 1025.15 1024.51 1023.79 1023.88 1024.30 1025.22 1024.77 1024.32 1024.18 1024.27 1024.64 1024.12 1024.22 1023.89 1023.80 1024.30 1024.20 1024.23 1023.29 1023.94 1024.26 1024.51 1025.45 1025.53 1025.49 1025.38 1025.60 1025.86 1025.66 1025.78 1026.01 1026.04 1025.85 1024.80 1022.72 1021.63 1017.14 1016.05 1016.05 1015.81 1015.65 1015.72 1016.07 1016.19
1025.79 1025.42 1024.73 1024.47 1024.41 1025.30 1025.00 1024.69 1024.44 1024.36 1024.75 1024.86 1024.53 1024.33 1024.20 1024.15 1024.33 1024.08 1023.96 1024.06 1024.58 1024.67 1025.09 1025.95 1026.33 1026.31 1026.27 1026.14 1026.14 1026.02 1025.96 1025.73 1026.04 1025.99 1025.13 1022.72 1021.62 1017.50 1016.10 1015.17 1015.06 1015.21 1015.57 1015.96 1016.03
1025.75 1025.62 1025.17 1025.14 1025.52 1025.40 1025.06 1024.70 1024.87 1025.02 1025.37 1025.23 1025.00 1024.80 1024.69 1024.72 1024.45 1024.36 1024.28 1024.45 1025.07 1025.47 1025.96 1026.40 1026.66 1026.81 1026.99 1026.62 1026.44 1026.50 1026.36 1026.55 1026.76 1026.27 1024.63 1022.93 1021.92 1017.38 1015.48 1014.97 1015.01 1015.28 1015.62 1015.84 1015.76
1025.65 1025.46 1025.87 1025.94 1025.82 1025.60 1025.12 1024.95 1025.08 1024.64 1024.63 1024.78 1024.90 1024.98 1025.09 1025.35 1025.12 1024.90 1024.82 1025.21 1025.69 1025.87 1026.38 1026.90 1027.17 1027.31 1027.42 1027.45 1027.52 1027.32 1027.64 1028.06 1027.99 1027.18 1025.37 1023.46 1021.08 1016.62 1014.98 1014.83 1014.88 1015.09 1015.60 1015.81 1015.81
1025.90 1025.20 1025.41 1026.11 1025.95 1025.72 1025.63 1025.82 1024.83 1024.30 1023.87 1024.30 1025.02 1025.19 1025.56 1025.76 1025.75 1025.30 1025.34 1025.49 1025.85 1026.35 1027.03 1027.67 1027.95 1028.19 1028.22 1028.23 1028.28 1027.93 1028.13 1028.71 1028.73 1028.10 1026.67 1022.84 1019.49 1016.12 1014.97 1014.89 1014.91 1015.31 1015.75 1015.94 1015.67
1025.67 1025.72 1025.66 1026.08 1026.01 1026.15 1026.27 1025.81 1025.01 1024.15 1023.86 1023.82 1024.36 1024.77 1025.64 1026.17 1026.40 1026.09 1025.78 1025.76 1026.43 1026.96 1027.36 1028.00 1028.48 1028.69 1028.95 1028.92 1029.01 1028.77 1028.91 1029.23 1029.39 1029.10 1027.24 1022.89 1019.97 1016.90 1015.55 1015.26 1015.11 1015.44 1015.90 1015.68 1015.34
1025.58 1025.76 1026.44 1026.32 1026.28 1026.82 1027.39 1026.43 1025.20 1024.53 1024.10 1024.12 1024.17 1024.84 1025.37 1025.86 1026.24 1026.44 1026.18 1026.38 1026.39 1027.51 1027.80 1028.12 1028.66 1029.63 1029.43 1029.18 1028.89 1029.52 1029.46 1029.89 1030.13 1029.35 1028.28 1025.08 1020.08 1015.89 1015.39 1015.24 1015.34 1015.57 1015.68 1015.22 1015.01
1025.82 1026.43 1026.31 1026.47 1026.91 1027.24 1027.19 1026.59 1026.25 1025.36 1024.86 1024.66 1024.49 1024.46 1024.94 1025.41 1026.23 1026.43 1026.04 1026.01 1026.36 1027.21 1028.02 1028.37 1028.77 1029.42 1029.24 1029.04 1029.32 1029.38 1029.17 1029.49 1029.85 1029.65 1028.39 1026.58 1020.13 1015.74 1015.16 1015.03 1015.18 1015.33 1015.49 1015.08 1014.81
1025.32 1026.12 1026.52 1026.45 1026.91 1027.14 1026.76 1026.10 1025.92 1025.77 1025.56 1025.31 1024.79 1024.57 1024.56 1025.36 1026.19 1026.02 1026.14 1026.41 1026.46 1027.20 1027.79 1028.50 1029.28 1029.56 1029.80 1030.12 1030.07 1029.92 1029.49 1029.25 1029.36 1029.31 1027.81 1026.47 1019.47 1015.71 1015.32 1015.20 1015.16 1015.16 1015.00 1014.82 1014.74
1024.80 1025.97 1026.67 1026.59 1026.27 1026.36 1026.11 1025.90 1025.43 1025.05 1025.52 1025.34 1025.44 1024.96 1025.34 1025.51 1025.58 1025.96 1026.47 1026.94 1026.95 1027.51 1027.92 1028.39 1029.10 1029.41 1029.24 1029.07 1029.16 1030.03 1029.57 1029.13 1029.13 1028.68 1026.36 1023.11 1018.72 1016.37 1015.42 1015.28 1014.93 1015.01 1015.00 1014.81 1014.70
1023.81 1023.73 1023.65 1025.51 1025.38 1025.23 1025.16 1024.41 1025.08 1025.11 1025.28 1025.43 1025.63 1025.14 1025.10 1025.60 1025.66 1025.95 1026.28 1027.21 1027.69 1027.84 1028.46 1029.16 1029.84 1030.06 1029.33 1028.93 1028.93 1028.69 1028.51 1028.37 1027.86 1025.68 1025.04 1019.98 1019.70 1015.24 1015.89 1015.26 1014.91 1014.75 1014.60 1014.63 1014.53
1022.32 1023.04 1023.87 1023.38 1023.14 1024.09 1024.25 1023.42 1023.44 1023.94 1024.10 1024.94 1025.05 1024.11 1024.55 1024.54 1024.16 1024.84 1025.52 1026.45 1026.89 1028.21 1028.88 1029.70 1030.24 1030.85 1030.16 1028.80 1028.48 1027.82 1026.57 1026.25 1025.43 1024.58 1023.31 1020.78 1019.25 1014.64 1015.25 1014.80 1014.77 1014.62 1014.44 1014.48 1014.23
1020.45 1021.67 1021.79 1021.73 1022.34 1022.44 1021.20 1021.26 1021.28 1022.04 1022.43 1021.96 1022.72 1023.62 1023.84 1023.00 1024.04 1024.68 1025.04 1025.24 1025.85 1026.98 1028.48 1029.73 1030.62 1031.46 1030.32 1029.28 1028.20 1026.00 1022.77 1022.40 1022.43 1021.33 1020.43 1020.73 1015.48 1015.38 1014.90 1014.38 1014.01 1014.13 1014.17 1014.30 1014.06
Wind_Speed
16 16 16 15 16 15 15 15 14 13 13 12 9 7 10 11 8 19 20 14 15 22 20 8 5 6 9 2 4 2 2 4 6 6 5 12 9 8 8 6 10 12 12 12 16
16 16 15 15 15 14 14 15 14 13 12 12 11 6 5 7 4 20 19 23 23 22 8 8 6 6 2 1 3 3 2 5 7 9 6 9 9 9 6 8 8 15 17 17 15
16 16 16 16 16 15 14 13 12 13 14 14 13 6 5 5 0 11 24 23 23 15 2 4 6 7 6 8 6 7 5 6 8 8 6 8 9 7 8 6 7 10 11 11 9
17 17 17 17 16 17 16 15 13 14 16 15 14 9 3 6 4 11 21 19 20 14 3 4 3 3 6 5 2 6 7 8 5 5 5 6 8 7 5 5 8 7 8 8 9
16 16 17 18 16 18 17 14 13 15 16 16 14 10 4 6 6 12 15 15 10 11 13 6 9 6 6 5 6 8 4 7 2 6 2 9 8 3 3 5 7 6 6 7 8
17 17 17 17 17 19 17 14 13 15 14 14 15 14 4 7 7 12 10 10 14 13 14 12 5 7 10 6 8 4 7 4 3 7 2 8 6 7 3 6 7 6 6 7 7
16 17 17 18 17 17 17 14 12 13 12 13 12 5 11 4 5 10 12 4 7 10 5 8 8 2 5 5 1 2 1 4 5 5 4 7 5 9 4 3 6 6 5 5 7
17 18 19 19 19 18 18 13 12 13 12 11 10 2 6 1 5 12 12 3 7 4 2 3 4 7 4 3 4 1 2 3 3 6 4 6 1 6 3 3 7 7 5 4 6
16 17 19 21 21 19 18 14 11 12 10 11 3 1 4 1 5 9 7 7 9 4 1 3 2 4 3 1 2 4 3 5 4 4 2 5 8 7 2 1 6 7 7 6 7
16 17 19 21 21 20 18 8 10 12 6 3 3 3 5 6 6 8 6 7 3 8 1 5 2 6 7 5 2 1 3 5 6 2 3 9 19 17 10 6 7 6 6 6 6
16 16 17 19 19 21 10 3 3 2 10 6 4 2 3 9 4 9 6 8 3 4 5 6 10 7 8 8 5 4 4 9 5 6 6 6 14 13 8 7 8 4 6 6 7
15 16 18 18 15 17 5 6 3 2 3 3 1 4 2 5 4 14 14 4 6 5 2 4 6 5 2 4 4 2 7 7 9 3 7 9 21 18 11 8 6 5 7 7 6
15 16 17 18 9 3 9 5 3 4 1 4 3 4 4 7 5 9 11 3 4 6 7 7 4 2 1 2 8 1 3 5 7 11 11 9 10 2 5 8 4 6 9 5 6
14 16 18 21 1 2 4 3 3 4 5 3 3 3 2 4 3 4 5 3 4 4 4 6 2 0 0 3 4 2 5 6 10 7 5 3 7 4 7 8 7 9 6 4 6
12 15 16 15 3 3 3 4 3 3 3 2 3 3 4 3 3 3 2 4 5 3 1 2 3 1 2 3 1 3 6 6 4 6 7 4 1 8 7 6 9 8 4 5 5
9 14 18 2 3 2 3 5 3 7 6 1 3 2 2 2 1 1 1 4 2 2 5 4 2 3 6 2 5 7 6 6 3 3 2 3 1 8 5 6 2 3 3 3 6
6 8 8 4 3 5 4 3 6 4 1 2 1 2 1 3 2 4 2 3 2 4 2 3 3 3 2 4 3 4 3 3 5 3 5 6 3 13 7 4 3 2 4 8 7
2 4 4 4 4 6 3 5 3 2 5 0 3 1 1 3 2 1 2 2 1 1 2 0 4 1 2 4 2 3 3 2 5 3 4 5 8 9 4 1 6 6 6 7 7
3 2 1 3 5 3 2 3 7 5 5 8 1 0 2 1 0 1 3 1 3 2 5 2 1 3 5 3 3 1 2 1 2 2 2 6 8 11 2 4 3 5 3 8 9
2 3 2 3 4 2 5 5 4 1 4 2 5 3 4 3 1 1 4 3 5 2 1 2 1 2 3 2 1 2 2 1 1 3 7 7 6 11 6 8 4 3 7 9 7
2 1 2 3 2 5 3 6 4 3 2 5 3 3 3 5 4 3 4 3 4 4 2 3 3 0 3 6 6 2 2 1 2 3 4 6 8 4 2 2 3 5 9 9 8
2 1 2 3 3 2 3 3 5 2 2 1 1 2 7 7 5 3 6 3 6 8 6 4 3 3 4 4 4 3 2 6 5 5 4 1 15 7 0 2 4 9 9 8 7
4 2 1 3 4 4 2 3 4 4 4 4 5 5 3 6 1 5 2 4 6 6 5 7 2 2 4 3 4 3 5 4 3 2 7 6 12 1 4 5 7 8 8 8 9
4 3 1 2 2 3 5 5 5 6 2 2 2 4 3 4 4 2 3 1 3 3 4 5 1 6 7 5 4 3 5 7 6 5 5 19 20 24 21 19 12 14 13 9 9
3 6 6 7 7 8 6 8 5 6 2 4 3 7 8 5 5 6 6 4 1 4 2 4 5 2 5 5 5 8 9 13 19 22 10 19 15 27 14 16 19 18 9 8 8
8 5 1 2 2 16 12 9 12 6 11 6 7 11 9 9 10 8 8 6 7 6 6 3 2 3 6 8 6 8 18 19 25 25 24 28 32 35 29 25 18 9 7 8 8
4 2 3 9 7 9 10 11 20 11 10 9 17 6 14 17 6 2 3 1 9 11 10 7 5 3 7 3 6 10 17 22 11 11 26 21 32 15 18 18 5 7 6 9 9
Wind_Direction
36 34 33 29 26 22 19 21 18 11 12 8 349 334 310 319 344 45 38 344 328 321 308 258 244 204 236 79 347 284 267 246 30 10 31 18 359 4 354 307 341 22 18 349 347
30 30 29 26 24 18 9 11 4 360 354 358 347 316 295 315 306 46 1 344 331 326 348 8 90 182 78 38 12 353 230 60 29 34 6 342 355 358 351 324 11 359 348 355 347
27 22 20 16 16 9 3 4 360 3 1 358 357 340 282 258 186 14 356 341 328 318 313 329 317 76 66 42 349 15 43 120 43 35 344 2 2 310 353 16 27 343 342 340 345
23 16 14 10 3 358 353 352 348 351 349 353 357 342 14 235 66 348 348 341 328 354 240 199 221 30 54 68 3 110 44 23 37 28 11 356 303 318 340 18 5 331 336 351 344
19 11 10 5 0 355 347 344 344 347 346 344 346 339 287 60 41 336 342 345 351 32 26 17 44 63 86 65 35 60 91 75 52 43 353 339 321 333 322 22 338 343 351 0 6
12 6 6 1 357 350 345 342 335 343 342 342 337 321 262 71 302 349 340 353 15 36 32 38 36 59 72 48 39 32 58 53 33 28 44 351 302 304 106 24 329 347 359 359 1
6 4 356 358 353 346 344 336 321 330 332 340 333 339 63 84 345 349 347 335 8 21 40 10 353 150 157 114 22 208 276 196 84 355 43 324 266 215 79 358 323 336 344 360 337
2 360 353 350 345 344 335 328 320 321 321 325 316 334 84 259 316 5 360 350 349 6 85 330 247 98 53 153 178 220 343 319 91 2 51 360 174 145 123 357 325 318 327 338 317
0 355 354 345 341 339 338 317 298 307 298 298 303 304 81 243 18 339 19 342 316 355 308 272 326 66 210 198 103 44 328 17 327 98 317 43 282 218 12 247 309 310 320 320 313
357 355 352 343 341 339 333 294 306 309 295 212 75 53 37 356 326 310 342 327 333 305 266 7 79 75 21 359 170 45 345 340 301 40 8 288 267 265 269 212 255 291 300 309 325
352 351 347 344 342 336 342 287 302 17 37 73 345 63 18 325 259 10 338 310 221 60 28 7 63 60 29 22 17 27 318 280 314 24 347 285 288 275 266 209 238 284 312 315 315
346 344 343 339 335 336 353 60 60 313 81 31 56 101 23 324 339 13 341 44 39 52 305 49 78 58 42 337 346 301 291 333 300 79 334 284 286 272 240 228 202 252 285 293 310
343 341 337 333 318 25 75 63 323 288 263 47 23 22 346 325 48 350 356 347 17 45 35 76 106 126 2 23 11 310 309 6 294 315 264 290 272 216 191 188 164 238 251 278 309
343 343 341 332 358 307 62 1 311 299 75 322 64 50 307 330 69 351 1 356 53 76 41 73 128 181 332 95 24 315 48 332 307 328 297 41 284 240 175 196 217 232 230 297 302
348 346 342 356 318 43 358 316 310 257 15 53 52 329 299 41 319 47 277 300 46 78 313 158 162 178 242 79 100 228 14 283 307 291 317 201 294 262 121 201 234 207 175 250 291
355 357 333 312 78 26 314 309 271 44 263 23 328 336 241 11 74 233 82 77 355 70 43 73 27 332 9 296 232 292 284 202 215 228 331 124 58 278 187 200 153 180 211 319 307
358 360 15 346 21 326 307 237 37 145 80 272 191 354 302 35 102 18 20 63 51 53 12 156 127 100 329 305 168 301 320 319 351 6 234 115 322 248 284 204 187 267 311 282 290
354 340 50 46 341 327 274 44 119 201 221 241 154 130 19 347 87 306 193 172 89 299 113 97 318 98 348 49 343 6 28 130 258 299 308 142 236 256 176 335 239 219 259 277 307
296 203 187 31 342 308 49 77 215 204 153 155 117 151 300 222 247 244 213 164 112 160 147 131 227 97 37 347 343 20 63 58 310 137 351 241 273 287 304 198 164 202 329 314 297
268 306 77 358 356 335 73 235 224 249 127 165 175 185 204 211 237 227 176 184 140 81 47 194 41 0 113 249 73 336 49 112 329 359 290 285 276 248 240 248 176 21 316 287 299
237 286 81 345 286 57 197 246 242 234 258 182 215 137 216 185 191 215 224 296 124 133 113 132 111 238 45 201 175 156 166 60 83 157 224 301 254 218 281 352 297 294 275 292 326
137 232 82 289 80 142 195 206 332 174 80 150 291 279 188 168 187 236 217 172 153 157 159 203 134 219 202 79 47 352 229 172 139 237 243 281 267 266 216 198 244 265 282 308 325
180 149 106 282 181 208 233 221 207 199 213 178 204 225 26 170 200 184 185 40 168 176 165 195 229 0 307 9 12 220 205 231 63 72 213 158 261 120 147 235 245 284 320 320 310
136 166 279 251 99 196 170 226 204 183 233 181 170 73 122 212 215 206 206 143 191 168 106 158 222 192 202 188 123 193 222 212 152 187 202 226 278 268 281 297 298 317 313 296 297
183 219 173 180 218 198 184 162 166 191 216 191 209 209 165 175 188 206 193 118 166 170 181 130 201 207 280 260 206 203 218 197 210 217 208 256 261 271 269 288 299 301 280 292 309
157 163 258 154 145 182 189 207 181 164 151 219 219 189 185 183 183 185 162 163 190 169 170 162 249 80 282 258 243 249 249 232 229 236 248 256 270 267 280 281 280 275 294 295 303
127 52 170 172 164 163 198 193 205 157 219 192 197 152 198 219 122 84 27 111 154 159 177 155 142 110 263 336 312 283 233 225 207 215 222 233 239 268 275 276 280 293 296 285 296